User: anonymous   Login
Location: Vigo di Fassa
(46.4167°N, 11.6667°E)
Time: 20:40:56
(UTC+00:00)
Language:

Cosmos 1869 Rocket - Orbit

View from above orbital plane
View from above orbital plane
View from above satellite
View from above satellite

Ground track
Ground track

The orbit data is extracted from the following two-line orbital elements,

1 18215U 87062B   21136.77151212  .00000096  00000-0  87061-5 0  9991
2 18215  82.5148  23.6239 0022033  94.4211 330.2038 14.83261226806786
Epoch (UTC): 16 May 2021 18:30:58
Eccentricity: 0.0022033
inclination: 82.5148°
perigee height: 603 km
apogee height: 634 km
right ascension of ascending node: 23.6239°
argument of perigee: 94.4211°
revolutions per day: 14.83261226
mean anomaly at epoch: 330.2038°
orbit number at epoch: 80678

The dashed part of the orbit path shows where the satellite is in the earth's shadow,  

DLR